STARLINK-1878 (47163 NORAD) Tracking and Keplerian Element Data
This shows tracking and keplerian element data for the satellite.
Feedback or suggestion? Click here.
Element | Value |
Catalog | 47163 |
Name | STARLINK-1878 |
Epoch Orbit | 180 |
Epoch Day | 20.91667824 |
Epoch Year | 2021 |
RAAN | 83.3056 |
Inclination | 53.058 |
Eccentricity | 0.0001349 |
Argument of Perigee | 65.0259 |
Mean Anonmoly | 90.026 |
Mean Motion | 15.06391279 |
Decay Rate | -6.187E-05 |
L1 | 1 47163U 20088AT 21020.91667824 -.00006187 00000-0 -39692-3 0 9993 |
L2 | 2 47163 53.0580 83.3056 0001349 65.0259 90.0260 15.06391279 1802 |
Live tracking and technical data element details for STARLINK-1878 (NORAD 47163). STARLINK-1878 can be tracked NOW for your location showing map with azimuth and elevation plus other details from your city location.
Track the satellite on the map from your city or location and see movement details for azimuth, elevation, latitude, longitude, range, height, and movement on the map or in text.
IsCatalogInMostPopularTable: catalog: 47163, numindb: 25
Update: records affected: 1
GetName: 47163 STARLINK-1878
Hit Count: updated at: Sat, 23 Jan 2021 18:22:24 GMT